Погода в Горках

Россия / Ярославская область     56°39′14″N   39°17′05″E
темп.,
°C
ветер,
м/с
пор.,
м/с
влажн.,
%
обл.,
%
осадки,
мм/ч
давл.,
гПа
погр.,
м
14 июня, пн
пн1400:00+17ююз368393 0.0 101099
03:00+16ююз3585100 0.0 1011113
06:00+16юз358831 0.0 1012148
09:00+21юз34710 0.0 1013482
12:00+23ююз33615 0.8 10141255
15:00+24ю335891 0.8 10141273
18:00+22ю247612 0.3 1013136
21:00+18зюз228120 0.7 101412
15 июня, вт
вт1500:00+16ссз228699 0.0 101411
03:00+17с118898 0.0 101412
06:00+18с118735 0.0 101466
09:00+21сз11775 0.5 1013244
12:00+24юз23604 1.1 10121195
15:00+24юз33621 1.3 1011994
18:00+24юз137041 1.8 1010661
21:00+19ююз228156 2.8 101012
16 июня, ср
ср1600:00+16зюз2291100 1.5 100912
03:00+16з3496100 3.4 100974
06:00+17сз499219 1.3 1010318
09:00+17ссз5981100 1.3 1011479
12:00+20ссз576983 0.0 10121375
15:00+21с48560 0.2 10131993
18:00+19с47645 0.0 1015490
21:00+14сз3376100 0.0 101731
17 июня, чт
чт1700:00+12ссз39660 0.0 1019147
03:00+10сз22695 0.0 102126
06:00+12зсз25765 0.0 1022143
09:00+18ссз35590 0.0 1023706
12:00+21ссз465010 0.0 10232051
15:00+22сз565461 0.0 10232290
18:00+21сз36646 0.0 1023370
21:00+16зсз22745 0.0 102411
18 июня, пт
пт1800:00+14з227785 0.0 102510
03:00+13з22780 0.0 102624
06:00+15зюз24810 0.0 1026106
09:00+20з23670 0.0 1026407
12:00+23зюз33530 0.0 10261334
15:00+25зюз35515 0.0 10251688
18:00+24зюз35695 0.0 1024285
21:00+19зюз357518 0.0 102558